sat.trackr.live / text

‹ back to catalog

COSMOS 2523

NORAD 42986 · 2017-037E

PAYLOAD ACTIVE UNKNOWN

§ Identity

Operator
Country
CIS
Launch date
2017-06-23
Launch site
PLMSC
Launch vehicle
Mass (kg)
RCS (m²)

External: N2YO · Heavens-Above · Gunter

§ Orbital elements

Epoch: 2026-09-12T04:18:45.038880Z

Period
96.28 min
Inclination
97.4998°
Eccentricity
0.0064962
Mean motion
14.95677338 rev/d
Perigee alt
535.1 km
Apogee alt
625.5 km
Semi-major
6,958.4 km
B*
1.3273e-4
RAAN
264.5756°
Arg perigee
298.4547°
Mean anomaly
61.0139°
Rev number
48,196

§ Raw data

COSMOS 25231 42986U 17037E   26255.17968795  .00001480  00000+0  13273-3 0  99902 42986  97.4998 264.5756 0064962 298.4547  61.0139 14.95677338481969

JSON: /api/v1/satellites/42986 · /tle

For live sub-satellite position, see the globe view (requires WebGL).

§ Visibility from observer

Set your observer location to see the next 7 days of passes ≥ 10°. The values pass through the URL so the page stays shareable.

No JS? Fill the form by hand. The geolocation button needs JavaScript.